Year,Month,Day,Hour,Minute,Value (Times are PST for temperature in C)
2009,07,27,00,00,19.30
2009,07,27,00,01,19.30
2009,07,27,00,02,19.30
2009,07,27,00,03,19.30
2009,07,27,00,04,19.30
2009,07,27,00,05,19.30
2009,07,27,00,06,19.30
2009,07,27,00,07,19.30
2009,07,27,00,08,19.30
2009,07,27,00,09,19.30
2009,07,27,00,10,19.30
2009,07,27,00,11,19.40
2009,07,27,00,12,19.40
2009,07,27,00,13,19.40
2009,07,27,00,14,19.40
2009,07,27,00,15,19.40
2009,07,27,00,16,19.50
2009,07,27,00,17,19.50
2009,07,27,00,18,19.50
2009,07,27,00,19,19.50
2009,07,27,00,20,19.50
2009,07,27,00,21,19.50
2009,07,27,00,22,19.50
2009,07,27,00,23,19.50
2009,07,27,00,24,19.50
2009,07,27,00,25,19.50
2009,07,27,00,26,19.50
2009,07,27,00,27,19.50
2009,07,27,00,28,19.50
2009,07,27,00,29,19.50
2009,07,27,00,30,19.50
2009,07,27,00,31,19.50
2009,07,27,00,32,19.50
2009,07,27,00,33,19.50
2009,07,27,00,34,19.50
2009,07,27,00,35,19.50
2009,07,27,00,36,19.50
2009,07,27,00,37,19.50
2009,07,27,00,38,19.40
2009,07,27,00,39,19.40
2009,07,27,00,40,19.40
2009,07,27,00,41,19.40
2009,07,27,00,42,19.40
2009,07,27,00,43,19.40
2009,07,27,00,44,19.40
2009,07,27,00,45,19.40
2009,07,27,00,46,19.40
2009,07,27,00,47,19.30
2009,07,27,00,48,19.30
2009,07,27,00,49,19.30
2009,07,27,00,50,19.30
2009,07,27,00,51,19.30
2009,07,27,00,52,19.20
2009,07,27,00,53,19.20
2009,07,27,00,54,19.20
2009,07,27,00,55,19.10
2009,07,27,00,56,19.10
2009,07,27,00,57,19.00
2009,07,27,00,58,19.00
2009,07,27,00,59,19.00
2009,07,27,01,00,18.90
2009,07,27,01,01,18.90
2009,07,27,01,02,18.80
2009,07,27,01,03,18.80
2009,07,27,01,04,18.80
2009,07,27,01,05,18.80
2009,07,27,01,06,18.70
2009,07,27,01,07,18.70
2009,07,27,01,08,18.70
2009,07,27,01,09,18.60
2009,07,27,01,10,18.60
2009,07,27,01,11,18.60
2009,07,27,01,12,18.50
2009,07,27,01,13,18.50
2009,07,27,01,14,18.40
2009,07,27,01,15,18.40
2009,07,27,01,16,18.40
2009,07,27,01,17,18.40
2009,07,27,01,18,18.30
2009,07,27,01,19,18.30
2009,07,27,01,20,18.30
2009,07,27,01,21,18.30
2009,07,27,01,22,18.30
2009,07,27,01,23,18.30
2009,07,27,01,24,18.30
2009,07,27,01,25,18.30
2009,07,27,01,26,18.30
2009,07,27,01,27,18.30
2009,07,27,01,28,18.30
2009,07,27,01,29,18.30
2009,07,27,01,30,18.30
2009,07,27,01,31,18.30
2009,07,27,01,32,18.30
2009,07,27,01,33,18.30
2009,07,27,01,34,18.30
2009,07,27,01,35,18.30
2009,07,27,01,36,18.20
2009,07,27,01,37,18.20
2009,07,27,01,38,18.20
2009,07,27,01,39,18.20
2009,07,27,01,40,18.20
2009,07,27,01,41,18.20
2009,07,27,01,42,18.20
2009,07,27,01,43,18.20
2009,07,27,01,44,18.20
2009,07,27,01,45,18.20
2009,07,27,01,46,18.20
2009,07,27,01,47,18.10
2009,07,27,01,48,18.10
2009,07,27,01,49,18.10
2009,07,27,01,50,18.10
2009,07,27,01,51,18.10
2009,07,27,01,52,18.10
2009,07,27,01,53,18.10
2009,07,27,01,54,18.10
2009,07,27,01,55,18.10
2009,07,27,01,56,18.00
2009,07,27,01,57,18.00
2009,07,27,01,58,18.00
2009,07,27,01,59,18.00
2009,07,27,02,00,17.90
2009,07,27,02,01,17.90
2009,07,27,02,02,17.90
2009,07,27,02,03,17.80
2009,07,27,02,04,17.70
2009,07,27,02,05,17.70
2009,07,27,02,06,17.70
2009,07,27,02,07,17.60
2009,07,27,02,08,17.60
2009,07,27,02,09,17.60
2009,07,27,02,10,17.60
2009,07,27,02,11,17.60
2009,07,27,02,12,17.60
2009,07,27,02,13,17.60
2009,07,27,02,14,17.60
2009,07,27,02,15,17.60
2009,07,27,02,16,17.60
2009,07,27,02,17,17.60
2009,07,27,02,18,17.60
2009,07,27,02,19,17.60
2009,07,27,02,20,17.60
2009,07,27,02,21,17.60
2009,07,27,02,22,17.60
2009,07,27,02,23,17.60
2009,07,27,02,24,17.60
2009,07,27,02,25,17.60
2009,07,27,02,26,17.60
2009,07,27,02,27,17.60
2009,07,27,02,28,17.60
2009,07,27,02,29,17.60
2009,07,27,02,30,17.60
2009,07,27,02,31,17.60
2009,07,27,02,32,17.60
2009,07,27,02,33,17.60
2009,07,27,02,34,17.60
2009,07,27,02,35,17.60
2009,07,27,02,36,17.70
2009,07,27,02,37,17.70
2009,07,27,02,38,17.70
2009,07,27,02,39,17.70
2009,07,27,02,40,17.70
2009,07,27,02,41,17.70
2009,07,27,02,42,17.70
2009,07,27,02,43,17.70
2009,07,27,02,44,17.80
2009,07,27,02,45,17.80
2009,07,27,02,46,17.80
2009,07,27,02,47,17.80
2009,07,27,02,48,17.80
2009,07,27,02,49,17.80
2009,07,27,02,50,17.70
2009,07,27,02,51,17.70
2009,07,27,02,52,17.70
2009,07,27,02,53,17.70
2009,07,27,02,54,17.70
2009,07,27,02,55,17.70
2009,07,27,02,56,17.70
2009,07,27,02,57,17.60
2009,07,27,02,58,17.60
2009,07,27,02,59,17.60
2009,07,27,03,00,17.50
2009,07,27,03,01,17.50
2009,07,27,03,02,17.50
2009,07,27,03,03,17.40
2009,07,27,03,04,17.40
2009,07,27,03,05,17.30
2009,07,27,03,06,17.30
2009,07,27,03,07,17.30
2009,07,27,03,08,17.20
2009,07,27,03,09,17.20
2009,07,27,03,10,17.10
2009,07,27,03,11,17.00
2009,07,27,03,12,17.00
2009,07,27,03,13,16.90
2009,07,27,03,14,16.90
2009,07,27,03,15,16.80
2009,07,27,03,16,16.70
2009,07,27,03,17,16.70
2009,07,27,03,18,16.60
2009,07,27,03,19,16.50
2009,07,27,03,20,16.40
2009,07,27,03,21,16.30
2009,07,27,03,22,16.20
2009,07,27,03,23,16.10
2009,07,27,03,24,15.90
2009,07,27,03,25,15.80
2009,07,27,03,26,15.80
2009,07,27,03,27,15.60
2009,07,27,03,28,15.60
2009,07,27,03,29,15.50
2009,07,27,03,30,15.40
2009,07,27,03,31,15.30
2009,07,27,03,32,15.30
2009,07,27,03,33,15.20
2009,07,27,03,34,15.10
2009,07,27,03,35,15.00
2009,07,27,03,36,15.00
2009,07,27,03,37,15.00
2009,07,27,03,38,15.00
2009,07,27,03,39,15.00
2009,07,27,03,40,15.00
2009,07,27,03,41,15.00
2009,07,27,03,42,14.90
2009,07,27,03,43,14.80
2009,07,27,03,44,14.80
2009,07,27,03,45,14.80
2009,07,27,03,46,14.70
2009,07,27,03,47,14.70
2009,07,27,03,48,14.70
2009,07,27,03,49,14.70
2009,07,27,03,50,14.70
2009,07,27,03,51,14.70
2009,07,27,03,52,14.70
2009,07,27,03,53,14.60
2009,07,27,03,54,14.60
2009,07,27,03,55,14.60
2009,07,27,03,56,14.60
2009,07,27,03,57,14.60
2009,07,27,03,58,14.60
2009,07,27,03,59,14.70
2009,07,27,04,00,14.70
2009,07,27,04,01,14.70
2009,07,27,04,02,14.70
2009,07,27,04,03,14.70
2009,07,27,04,04,14.70
2009,07,27,04,05,14.70
2009,07,27,04,06,14.70
2009,07,27,04,07,14.70
2009,07,27,04,08,14.70
2009,07,27,04,09,14.70
2009,07,27,04,10,14.70
2009,07,27,04,11,14.70
2009,07,27,04,12,14.70
2009,07,27,04,13,14.70
2009,07,27,04,14,14.80
2009,07,27,04,15,14.80
2009,07,27,04,16,14.80
2009,07,27,04,17,14.80
2009,07,27,04,18,14.80
2009,07,27,04,19,14.80
2009,07,27,04,20,14.80
2009,07,27,04,21,14.80
2009,07,27,04,22,14.90
2009,07,27,04,23,14.90
2009,07,27,04,24,14.90
2009,07,27,04,25,15.00
2009,07,27,04,26,15.00
2009,07,27,04,27,15.00
2009,07,27,04,28,15.00
2009,07,27,04,29,15.00
2009,07,27,04,30,15.00
2009,07,27,04,31,15.00
2009,07,27,04,32,15.00
2009,07,27,04,33,15.00
2009,07,27,04,34,15.00
2009,07,27,04,35,15.00
2009,07,27,04,36,15.00
2009,07,27,04,37,15.00
2009,07,27,04,38,15.00
2009,07,27,04,39,15.00
2009,07,27,04,40,15.00
2009,07,27,04,41,15.00
2009,07,27,04,42,15.00
2009,07,27,04,43,15.00
2009,07,27,04,44,14.90
2009,07,27,04,45,14.90
2009,07,27,04,46,14.90
2009,07,27,04,47,14.90
2009,07,27,04,48,14.90
2009,07,27,04,49,14.90
2009,07,27,04,50,14.90
2009,07,27,04,51,14.90
2009,07,27,04,52,14.90
2009,07,27,04,53,14.90
2009,07,27,04,54,14.90
2009,07,27,04,55,14.90
2009,07,27,04,56,15.00
2009,07,27,04,57,15.00
2009,07,27,04,58,15.00
2009,07,27,04,59,15.00
2009,07,27,05,00,15.00
2009,07,27,05,01,15.00
2009,07,27,05,02,15.00
2009,07,27,05,03,15.00
2009,07,27,05,04,15.00
2009,07,27,05,05,15.00
2009,07,27,05,06,15.00
2009,07,27,05,07,15.00
2009,07,27,05,08,15.00
2009,07,27,05,09,15.00
2009,07,27,05,10,15.00
2009,07,27,05,11,15.00
2009,07,27,05,12,15.00
2009,07,27,05,13,15.00
2009,07,27,05,14,15.10
2009,07,27,05,15,15.20
2009,07,27,05,16,15.20
2009,07,27,05,17,15.20
2009,07,27,05,18,15.30
2009,07,27,05,19,15.30
2009,07,27,05,20,15.30
2009,07,27,05,21,15.40
2009,07,27,05,22,15.40
2009,07,27,05,23,15.40
2009,07,27,05,24,15.40
2009,07,27,05,25,15.40
2009,07,27,05,26,15.40
2009,07,27,05,27,15.40
2009,07,27,05,28,15.40
2009,07,27,05,29,15.40
2009,07,27,05,30,15.40
2009,07,27,05,31,15.40
2009,07,27,05,32,15.40
2009,07,27,05,33,15.50
2009,07,27,05,34,15.50
2009,07,27,05,35,15.50
2009,07,27,05,36,15.60
2009,07,27,05,37,15.60
2009,07,27,05,38,15.60
2009,07,27,05,39,15.60
2009,07,27,05,40,15.60
2009,07,27,05,41,15.60
2009,07,27,05,42,15.60
2009,07,27,05,43,15.60
2009,07,27,05,44,15.60
2009,07,27,05,45,15.60
2009,07,27,05,46,15.60
2009,07,27,05,47,15.70
2009,07,27,05,48,15.70
2009,07,27,05,49,15.70
2009,07,27,05,50,15.70
2009,07,27,05,51,15.70
2009,07,27,05,52,15.70
2009,07,27,05,53,15.70
2009,07,27,05,54,15.70
2009,07,27,05,55,15.70
2009,07,27,05,56,15.70
2009,07,27,05,57,15.70
2009,07,27,05,58,15.70
2009,07,27,05,59,15.70
2009,07,27,06,00,15.70
2009,07,27,06,01,15.80
2009,07,27,06,02,15.80
2009,07,27,06,03,15.80
2009,07,27,06,04,15.80
2009,07,27,06,05,15.80
2009,07,27,06,06,15.80
2009,07,27,06,07,15.80
2009,07,27,06,08,15.80
2009,07,27,06,09,15.90
2009,07,27,06,10,15.90
2009,07,27,06,11,15.90
2009,07,27,06,12,15.90
2009,07,27,06,13,16.00
2009,07,27,06,14,16.00
2009,07,27,06,15,16.00
2009,07,27,06,16,16.00
2009,07,27,06,17,16.10
2009,07,27,06,18,16.10
2009,07,27,06,19,16.10
2009,07,27,06,20,16.10
2009,07,27,06,21,16.20
2009,07,27,06,22,16.20
2009,07,27,06,23,16.20
2009,07,27,06,24,16.20
2009,07,27,06,25,16.20
2009,07,27,06,26,16.20
2009,07,27,06,27,16.30
2009,07,27,06,28,16.30
2009,07,27,06,29,16.30
2009,07,27,06,30,16.30
2009,07,27,06,31,16.30
2009,07,27,06,32,16.40
2009,07,27,06,33,16.40
2009,07,27,06,34,16.40
2009,07,27,06,35,16.40
2009,07,27,06,36,16.50
2009,07,27,06,37,16.50
2009,07,27,06,38,16.50
2009,07,27,06,39,16.60
2009,07,27,06,40,16.60
2009,07,27,06,41,16.60
2009,07,27,06,42,16.70
2009,07,27,06,43,16.70
2009,07,27,06,44,16.70
2009,07,27,06,45,16.80
2009,07,27,06,46,16.80
2009,07,27,06,47,16.80
2009,07,27,06,48,16.90
2009,07,27,06,49,16.90
2009,07,27,06,50,17.00
2009,07,27,06,51,17.00
2009,07,27,06,52,17.10
2009,07,27,06,53,17.10
2009,07,27,06,54,17.10
2009,07,27,06,55,17.20
2009,07,27,06,56,17.20
2009,07,27,06,57,17.20
2009,07,27,06,58,17.30
2009,07,27,06,59,17.30
2009,07,27,07,00,17.30
2009,07,27,07,01,17.40
2009,07,27,07,02,17.40
2009,07,27,07,03,17.50
2009,07,27,07,04,17.60
2009,07,27,07,05,17.60
2009,07,27,07,06,17.70
2009,07,27,07,07,17.70
2009,07,27,07,08,17.80
2009,07,27,07,09,17.90
2009,07,27,07,10,17.90
2009,07,27,07,11,18.00
2009,07,27,07,12,18.00
2009,07,27,07,13,18.10
2009,07,27,07,14,18.10
2009,07,27,07,15,18.20
2009,07,27,07,16,18.20
2009,07,27,07,17,18.20
2009,07,27,07,18,18.30
2009,07,27,07,19,18.30
2009,07,27,07,20,18.40
2009,07,27,07,21,18.40
2009,07,27,07,22,18.40
2009,07,27,07,23,18.50
2009,07,27,07,24,18.50
2009,07,27,07,25,18.60
2009,07,27,07,26,18.60
2009,07,27,07,27,18.60
2009,07,27,07,28,18.70
2009,07,27,07,29,18.70
2009,07,27,07,30,18.80
2009,07,27,07,31,18.80
2009,07,27,07,32,18.90
2009,07,27,07,33,18.90
2009,07,27,07,34,18.90
2009,07,27,07,35,18.90
2009,07,27,07,36,19.00
2009,07,27,07,37,19.00
2009,07,27,07,38,19.00
2009,07,27,07,39,19.00
2009,07,27,07,40,19.00
2009,07,27,07,41,19.00
2009,07,27,07,42,19.00
2009,07,27,07,43,19.00
2009,07,27,07,44,19.00
2009,07,27,07,45,18.90
2009,07,27,07,46,18.90
2009,07,27,07,47,18.90
2009,07,27,07,48,19.00
2009,07,27,07,49,19.10
2009,07,27,07,50,19.10
2009,07,27,07,51,19.20
2009,07,27,07,52,19.20
2009,07,27,07,53,19.30
2009,07,27,07,54,19.40
2009,07,27,07,55,19.50
2009,07,27,07,56,19.50
2009,07,27,07,57,19.60
2009,07,27,07,58,19.70
2009,07,27,07,59,19.80
2009,07,27,08,00,19.80
2009,07,27,08,01,20.00
2009,07,27,08,02,20.10
2009,07,27,08,03,20.20
2009,07,27,08,04,20.40
2009,07,27,08,05,20.50
2009,07,27,08,06,20.60
2009,07,27,08,07,20.60
2009,07,27,08,08,20.70
2009,07,27,08,09,20.80
2009,07,27,08,10,20.80
2009,07,27,08,11,20.90
2009,07,27,08,12,21.00
2009,07,27,08,13,21.10
2009,07,27,08,14,21.10
2009,07,27,08,15,21.20
2009,07,27,08,16,21.20
2009,07,27,08,17,21.20
2009,07,27,08,18,21.30
2009,07,27,08,19,21.30
2009,07,27,08,20,21.40
2009,07,27,08,21,21.40
2009,07,27,08,22,21.50
2009,07,27,08,23,21.60
2009,07,27,08,24,21.60
2009,07,27,08,25,21.70
2009,07,27,08,26,21.80
2009,07,27,08,27,21.80
2009,07,27,08,28,21.80
2009,07,27,08,29,21.90
2009,07,27,08,30,22.00
2009,07,27,08,31,22.00
2009,07,27,08,32,22.10
2009,07,27,08,33,22.10
2009,07,27,08,34,22.20
2009,07,27,08,35,22.20
2009,07,27,08,36,22.20
2009,07,27,08,37,22.20
2009,07,27,08,38,22.30
2009,07,27,08,39,22.30
2009,07,27,08,40,22.30
2009,07,27,08,41,22.30
2009,07,27,08,42,22.30
2009,07,27,08,43,22.30
2009,07,27,08,44,22.30
2009,07,27,08,45,22.30
2009,07,27,08,46,22.30
2009,07,27,08,47,22.20
2009,07,27,08,48,22.20
2009,07,27,08,49,22.10
2009,07,27,08,50,22.10
2009,07,27,08,51,22.00
2009,07,27,08,52,22.00
2009,07,27,08,53,21.90
2009,07,27,08,54,21.90
2009,07,27,08,55,21.90
2009,07,27,08,56,22.00
2009,07,27,08,57,22.00
2009,07,27,08,58,22.10
2009,07,27,08,59,22.20
2009,07,27,09,00,22.20
2009,07,27,09,01,22.20
2009,07,27,09,02,22.30
2009,07,27,09,03,22.30
2009,07,27,09,04,22.40
2009,07,27,09,05,22.40
2009,07,27,09,06,22.40
2009,07,27,09,07,22.50
2009,07,27,09,08,22.60
2009,07,27,09,09,22.60
2009,07,27,09,10,22.60
2009,07,27,09,11,22.70
2009,07,27,09,12,22.80
2009,07,27,09,13,22.80
2009,07,27,09,14,22.90
2009,07,27,09,15,22.90
2009,07,27,09,16,23.00
2009,07,27,09,17,22.90
2009,07,27,09,18,22.90
2009,07,27,09,19,22.90
2009,07,27,09,20,23.00
2009,07,27,09,21,23.00
2009,07,27,09,22,23.00
2009,07,27,09,23,23.10
2009,07,27,09,24,23.10
2009,07,27,09,25,23.10
2009,07,27,09,26,23.10
2009,07,27,09,27,23.10
2009,07,27,09,28,23.10
2009,07,27,09,29,23.10
2009,07,27,09,30,23.10
2009,07,27,09,31,23.10
2009,07,27,09,32,23.20
2009,07,27,09,33,23.20
2009,07,27,09,34,23.30
2009,07,27,09,35,23.30
2009,07,27,09,36,23.40
2009,07,27,09,37,23.40
2009,07,27,09,38,23.50
2009,07,27,09,39,23.50
2009,07,27,09,40,23.40
2009,07,27,09,41,23.40
2009,07,27,09,42,23.40
2009,07,27,09,43,23.40
2009,07,27,09,44,23.40
2009,07,27,09,45,23.40
2009,07,27,09,46,23.50
2009,07,27,09,47,23.60
2009,07,27,09,48,23.60
2009,07,27,09,49,23.60
2009,07,27,09,50,23.70
2009,07,27,09,51,23.70
2009,07,27,09,52,23.70
2009,07,27,09,53,23.70
2009,07,27,09,54,23.70
2009,07,27,09,55,23.60
2009,07,27,09,56,23.60
2009,07,27,09,57,23.60
2009,07,27,09,58,23.60
2009,07,27,09,59,23.60
2009,07,27,10,00,23.60
2009,07,27,10,01,23.50
2009,07,27,10,02,23.50
2009,07,27,10,03,23.40
2009,07,27,10,04,23.30
2009,07,27,10,05,23.30
2009,07,27,10,06,23.30
2009,07,27,10,07,23.30
2009,07,27,10,08,23.30
2009,07,27,10,09,23.40
2009,07,27,10,10,23.30
2009,07,27,10,11,23.30
2009,07,27,10,12,23.30
2009,07,27,10,13,23.30
2009,07,27,10,14,23.20
2009,07,27,10,15,23.20
2009,07,27,10,16,23.10
2009,07,27,10,17,23.00
2009,07,27,10,18,22.90
2009,07,27,10,19,22.90
2009,07,27,10,20,22.90
2009,07,27,10,21,22.90
2009,07,27,10,22,23.00
2009,07,27,10,23,23.00
2009,07,27,10,24,23.00
2009,07,27,10,25,23.00
2009,07,27,10,26,23.00
2009,07,27,10,27,23.10
2009,07,27,10,28,23.10
2009,07,27,10,29,23.10
2009,07,27,10,30,23.10
2009,07,27,10,31,23.10
2009,07,27,10,32,23.10
2009,07,27,10,33,23.10
2009,07,27,10,34,23.20
2009,07,27,10,35,23.20
2009,07,27,10,36,23.20
2009,07,27,10,37,23.30
2009,07,27,10,38,23.30
2009,07,27,10,39,23.30
2009,07,27,10,40,23.40
2009,07,27,10,41,23.50
2009,07,27,10,42,23.60
2009,07,27,10,43,23.60
2009,07,27,10,44,23.70
2009,07,27,10,45,23.70
2009,07,27,10,46,23.70
2009,07,27,10,47,23.70
2009,07,27,10,48,23.80
2009,07,27,10,49,23.80
2009,07,27,10,50,23.80
2009,07,27,10,51,23.90
2009,07,27,10,52,23.90
2009,07,27,10,53,24.00
2009,07,27,10,54,24.00
2009,07,27,10,55,24.10
2009,07,27,10,56,24.20
2009,07,27,10,57,24.20
2009,07,27,10,58,24.30
2009,07,27,10,59,24.40
2009,07,27,11,00,24.50
2009,07,27,11,01,24.50
2009,07,27,11,02,24.60
2009,07,27,11,03,24.60
2009,07,27,11,04,24.70
2009,07,27,11,05,24.80
2009,07,27,11,06,24.70
2009,07,27,11,07,24.70
2009,07,27,11,08,24.60
2009,07,27,11,09,24.50
2009,07,27,11,10,24.40
2009,07,27,11,11,24.40
2009,07,27,11,12,24.40
2009,07,27,11,13,24.40
2009,07,27,11,14,24.40
2009,07,27,11,15,24.40
2009,07,27,11,16,24.40
2009,07,27,11,17,24.50
2009,07,27,11,18,24.50
2009,07,27,11,19,24.60
2009,07,27,11,20,24.60
2009,07,27,11,21,24.70
2009,07,27,11,22,24.70
2009,07,27,11,23,24.80
2009,07,27,11,24,24.80
2009,07,27,11,25,24.80
2009,07,27,11,26,24.90
2009,07,27,11,27,24.80
2009,07,27,11,28,24.80
2009,07,27,11,29,24.80
2009,07,27,11,30,24.80
2009,07,27,11,31,24.80
2009,07,27,11,32,24.80
2009,07,27,11,33,24.80
2009,07,27,11,34,24.90
2009,07,27,11,35,24.90
2009,07,27,11,36,24.90
2009,07,27,11,37,24.90
2009,07,27,11,38,24.90
2009,07,27,11,39,25.00
2009,07,27,11,40,24.90
2009,07,27,11,41,25.00
2009,07,27,11,42,24.90
2009,07,27,11,43,24.90
2009,07,27,11,44,24.90
2009,07,27,11,45,24.90
2009,07,27,11,46,24.90
2009,07,27,11,47,24.90
2009,07,27,11,48,24.90
2009,07,27,11,49,25.00
2009,07,27,11,50,25.10
2009,07,27,11,51,25.10
2009,07,27,11,52,25.00
2009,07,27,11,53,24.90
2009,07,27,11,54,24.90
2009,07,27,11,55,24.90
2009,07,27,11,56,24.90
2009,07,27,11,57,24.90
2009,07,27,11,58,25.00
2009,07,27,11,59,25.00
2009,07,27,12,00,25.00
2009,07,27,12,01,25.00
2009,07,27,12,02,25.10
2009,07,27,12,03,25.10
2009,07,27,12,04,25.10
2009,07,27,12,05,25.00
2009,07,27,12,06,24.90
2009,07,27,12,07,24.80
2009,07,27,12,08,24.80
2009,07,27,12,09,24.80
2009,07,27,12,10,24.80
2009,07,27,12,11,24.90
2009,07,27,12,12,24.90
2009,07,27,12,13,24.90
2009,07,27,12,14,24.90
2009,07,27,12,15,25.00
2009,07,27,12,16,25.00
2009,07,27,12,17,25.10
2009,07,27,12,18,25.00
2009,07,27,12,19,25.00
2009,07,27,12,20,24.90
2009,07,27,12,21,24.90
2009,07,27,12,22,24.90
2009,07,27,12,23,25.00
2009,07,27,12,24,25.10
2009,07,27,12,25,25.20
2009,07,27,12,26,25.30
2009,07,27,12,27,25.30
2009,07,27,12,28,25.40
2009,07,27,12,29,25.50
2009,07,27,12,30,25.50
2009,07,27,12,31,25.60
2009,07,27,12,32,25.70
2009,07,27,12,33,25.70
2009,07,27,12,34,25.80
2009,07,27,12,35,25.90
2009,07,27,12,36,25.90
2009,07,27,12,37,25.90
2009,07,27,12,38,25.90
2009,07,27,12,39,25.80
2009,07,27,12,40,25.90
2009,07,27,12,41,25.90
2009,07,27,12,42,25.90
2009,07,27,12,43,25.90
2009,07,27,12,44,25.90
2009,07,27,12,45,25.90
2009,07,27,12,46,25.90
2009,07,27,12,47,25.90
2009,07,27,12,48,25.90
2009,07,27,12,49,25.90
2009,07,27,12,50,26.00
2009,07,27,12,51,26.10
2009,07,27,12,52,26.10
2009,07,27,12,53,26.10
2009,07,27,12,54,26.10
2009,07,27,12,55,26.10
2009,07,27,12,56,26.10
2009,07,27,12,57,26.10
2009,07,27,12,58,26.10
2009,07,27,12,59,26.10
2009,07,27,13,00,26.10
2009,07,27,13,01,26.00
2009,07,27,13,02,26.10
2009,07,27,13,03,26.10
2009,07,27,13,04,26.20
2009,07,27,13,05,26.20
2009,07,27,13,06,26.20
2009,07,27,13,07,26.20
2009,07,27,13,08,26.20
2009,07,27,13,09,26.30
2009,07,27,13,10,26.40
2009,07,27,13,11,26.40
2009,07,27,13,12,26.40
2009,07,27,13,13,26.50
2009,07,27,13,14,26.50
2009,07,27,13,15,26.60
2009,07,27,13,16,26.60
2009,07,27,13,17,26.60
2009,07,27,13,18,26.70
2009,07,27,13,19,26.60
2009,07,27,13,20,26.50
2009,07,27,13,21,26.50
2009,07,27,13,22,26.50
2009,07,27,13,23,26.50
2009,07,27,13,24,26.60
2009,07,27,13,25,26.60
2009,07,27,13,26,26.60
2009,07,27,13,27,26.60
2009,07,27,13,28,26.60
2009,07,27,13,29,26.50
2009,07,27,13,30,26.50
2009,07,27,13,31,26.50
2009,07,27,13,32,26.50
2009,07,27,13,33,26.50
2009,07,27,13,34,26.50
2009,07,27,13,35,26.50
2009,07,27,13,36,26.50
2009,07,27,13,37,26.40
2009,07,27,13,38,26.50
2009,07,27,13,39,26.50
2009,07,27,13,40,26.60
2009,07,27,13,41,26.70
2009,07,27,13,42,26.70
2009,07,27,13,43,26.80
2009,07,27,13,44,26.80
2009,07,27,13,45,26.70
2009,07,27,13,46,26.60
2009,07,27,13,47,26.70
2009,07,27,13,48,26.70
2009,07,27,13,49,26.80
2009,07,27,13,50,26.80
2009,07,27,13,51,26.90
2009,07,27,13,52,27.00
2009,07,27,13,53,27.10
2009,07,27,13,54,27.20
2009,07,27,13,55,27.10
2009,07,27,13,56,27.10
2009,07,27,13,57,27.20
2009,07,27,13,58,27.30
2009,07,27,13,59,27.30
2009,07,27,14,00,27.40
2009,07,27,14,01,27.40
2009,07,27,14,02,27.50
2009,07,27,14,03,27.50
2009,07,27,14,04,27.60
2009,07,27,14,05,27.60
2009,07,27,14,06,27.60
2009,07,27,14,07,27.70
2009,07,27,14,08,27.80
2009,07,27,14,09,27.80
2009,07,27,14,10,27.90
2009,07,27,14,11,28.00
2009,07,27,14,12,28.10
2009,07,27,14,13,28.20
2009,07,27,14,14,28.20
2009,07,27,14,15,28.20
2009,07,27,14,16,28.20
2009,07,27,14,17,28.20
2009,07,27,14,18,28.20
2009,07,27,14,19,28.10
2009,07,27,14,20,27.90
2009,07,27,14,21,27.80
2009,07,27,14,22,27.80
2009,07,27,14,23,27.90
2009,07,27,14,24,27.90
2009,07,27,14,25,28.10
2009,07,27,14,26,28.20
2009,07,27,14,27,28.30
2009,07,27,14,28,28.30
2009,07,27,14,29,28.30
2009,07,27,14,30,28.40
2009,07,27,14,31,28.30
2009,07,27,14,32,28.30
2009,07,27,14,33,28.20
2009,07,27,14,34,28.20
2009,07,27,14,35,28.20
2009,07,27,14,36,28.30
2009,07,27,14,37,28.30
2009,07,27,14,38,28.30
2009,07,27,14,39,28.30
2009,07,27,14,40,28.30
2009,07,27,14,41,28.20
2009,07,27,14,42,28.00
2009,07,27,14,43,27.90
2009,07,27,14,44,27.80
2009,07,27,14,45,27.80
2009,07,27,14,46,27.80
2009,07,27,14,47,27.80
2009,07,27,14,48,27.90
2009,07,27,14,49,27.90
2009,07,27,14,50,27.90
2009,07,27,14,51,28.00
2009,07,27,14,52,28.20
2009,07,27,14,53,28.40
2009,07,27,14,54,28.40
2009,07,27,14,55,28.40
2009,07,27,14,56,28.30
2009,07,27,14,57,28.30
2009,07,27,14,58,28.30
2009,07,27,14,59,28.30
2009,07,27,15,00,28.20
2009,07,27,15,01,28.20
2009,07,27,15,02,28.20
2009,07,27,15,03,28.20
2009,07,27,15,04,28.20
2009,07,27,15,05,28.20
2009,07,27,15,06,28.20
2009,07,27,15,07,28.10
2009,07,27,15,08,28.10
2009,07,27,15,09,28.10
2009,07,27,15,10,28.20
2009,07,27,15,11,28.20
2009,07,27,15,12,28.20
2009,07,27,15,13,28.10
2009,07,27,15,14,28.10
2009,07,27,15,15,28.10
2009,07,27,15,16,28.10
2009,07,27,15,17,28.10
2009,07,27,15,18,28.10
2009,07,27,15,19,28.10
2009,07,27,15,20,28.20
2009,07,27,15,21,28.30
2009,07,27,15,22,28.30
2009,07,27,15,23,28.40
2009,07,27,15,24,28.40
2009,07,27,15,25,28.50
2009,07,27,15,26,28.40
2009,07,27,15,27,28.40
2009,07,27,15,28,28.30
2009,07,27,15,29,28.30
2009,07,27,15,30,28.30
2009,07,27,15,31,28.40
2009,07,27,15,32,28.40
2009,07,27,15,33,28.50
2009,07,27,15,34,28.60
2009,07,27,15,35,28.70
2009,07,27,15,36,28.70
2009,07,27,15,37,28.80
2009,07,27,15,38,28.70
2009,07,27,15,39,28.70
2009,07,27,15,40,28.80
2009,07,27,15,41,28.80
2009,07,27,15,42,28.80
2009,07,27,15,43,28.70
2009,07,27,15,44,28.60
2009,07,27,15,45,28.40
2009,07,27,15,46,28.20
2009,07,27,15,47,28.00
2009,07,27,15,48,27.80
2009,07,27,15,49,27.70
2009,07,27,15,50,27.70
2009,07,27,15,51,27.80
2009,07,27,15,52,27.80
2009,07,27,15,53,27.70
2009,07,27,15,54,27.70
2009,07,27,15,55,27.70
2009,07,27,15,56,27.70
2009,07,27,15,57,27.70
2009,07,27,15,58,27.70
2009,07,27,15,59,27.70
2009,07,27,16,00,27.80
2009,07,27,16,01,27.80
2009,07,27,16,02,27.90
2009,07,27,16,03,28.00
2009,07,27,16,04,28.10
2009,07,27,16,05,28.20
2009,07,27,16,06,28.30
2009,07,27,16,07,28.30
2009,07,27,16,08,28.30
2009,07,27,16,09,28.30
2009,07,27,16,10,28.20
2009,07,27,16,11,28.10
2009,07,27,16,12,28.10
2009,07,27,16,13,28.00
2009,07,27,16,14,27.90
2009,07,27,16,15,27.90
2009,07,27,16,16,28.00
2009,07,27,16,17,28.00
2009,07,27,16,18,28.10
2009,07,27,16,19,28.20
2009,07,27,16,20,28.40
2009,07,27,16,21,28.50
2009,07,27,16,22,28.60
2009,07,27,16,23,28.70
2009,07,27,16,24,28.70
2009,07,27,16,25,28.70
2009,07,27,16,26,28.80
2009,07,27,16,27,28.80
2009,07,27,16,28,28.80
2009,07,27,16,29,28.80
2009,07,27,16,30,28.80
2009,07,27,16,31,28.80
2009,07,27,16,32,28.80
2009,07,27,16,33,28.80
2009,07,27,16,34,28.90
2009,07,27,16,35,28.90
2009,07,27,16,36,29.00
2009,07,27,16,37,29.00
2009,07,27,16,38,28.90
2009,07,27,16,39,28.90
2009,07,27,16,40,28.90
2009,07,27,16,41,28.90
2009,07,27,16,42,28.90
2009,07,27,16,43,28.90
2009,07,27,16,44,29.00
2009,07,27,16,45,29.00
2009,07,27,16,46,29.10
2009,07,27,16,47,29.10
2009,07,27,16,48,29.10
2009,07,27,16,49,29.20
2009,07,27,16,50,29.20
2009,07,27,16,51,29.30
2009,07,27,16,52,29.40
2009,07,27,16,53,29.50
2009,07,27,16,54,29.50
2009,07,27,16,55,29.60
2009,07,27,16,56,29.60
2009,07,27,16,57,29.40
2009,07,27,16,58,29.20
2009,07,27,16,59,29.10
2009,07,27,17,00,29.00
2009,07,27,17,01,28.90
2009,07,27,17,02,28.80
2009,07,27,17,03,28.70
2009,07,27,17,04,28.70
2009,07,27,17,05,28.70
2009,07,27,17,06,28.70
2009,07,27,17,07,28.70
2009,07,27,17,08,28.70
2009,07,27,17,09,28.80
2009,07,27,17,10,28.80
2009,07,27,17,11,28.90
2009,07,27,17,12,29.00
2009,07,27,17,13,29.00
2009,07,27,17,14,29.10
2009,07,27,17,15,29.20
2009,07,27,17,16,29.20
2009,07,27,17,17,29.30
2009,07,27,17,18,29.40
2009,07,27,17,19,29.50